Location: Waco, TX
(31.5480°N, 97.1670°W)
Time: 19:29:18
(UTC-05:00)

ISS - Pass Details

Date: 14 January 2019
Orbit: 408 x 410 km, 51.6° (Epoch: 25 April)

Event Time Altitude Azimuth Distance (km) Brightness Sun altitude
Rises 05:39:54 0° 318° (NW) 2,345 - -22.8°
Reaches altitude 10° 05:42:01 10° 322° (NW) 1,479 - -22.4°
Maximum altitude 05:45:18 60° 44° (NE) 474 - -21.7°
Exits shadow 05:45:30 58° 64° (ENE) 481 -3.3 -21.7°
Drops below altitude 10° 05:48:33 10° 125° (SE) 1,466 0.0 -21.0°
Sets 05:50:39 0° 129° (SE) 2,322 1.1 -20.6°
